H1 CPF 2 NER 2022 12 25 9 359 01 glonass139 H2 1808601 9139 43687 2022 12 25 0 0 0 2022 12 28 23 45 0 900 1 1 0 0 0 1 H9 10 0 59938 0.00000 0 -10548659.347 -5537055.736 22568713.691 10 0 59938 900.00000 0 -8380013.640 -7316991.257 22968119.075 10 0 59938 1800.00000 0 -6329631.372 -9263624.025 22922141.406 10 0 59938 2700.00000 0 -4447245.812 -11328719.836 22431678.029 10 0 59938 3600.00000 0 -2773199.003 -13456325.777 21506227.085 10 0 59938 4500.00000 0 -1336964.519 -15584942.689 20163705.850 10 0 59938 5400.00000 0 -156135.115 -17649945.683 18430108.285 10 0 59938 6300.00000 0 764083.669 -19586153.078 16339007.791 10 0 59938 7200.00000 0 1430853.658 -21330437.626 13930914.054 10 0 59938 8100.00000 0 1863159.568 -22824271.895 11252495.500 10 0 59938 9000.00000 0 2090763.287 -24016101.949 8355681.531 10 0 59938 9900.00000 0 2152701.218 -24863450.177 5296661.213 10 0 59938 10800.00000 0 2095388.308 -25334659.101 2134797.244 10 0 59938 11700.00000 0 1970409.010 -25410202.628 -1068524.111 10 0 59938 12600.00000 0 1832088.806 -25083509.088 -4251084.743 10 0 59938 13500.00000 0 1734949.449 -24361260.785 -7351044.836 10 0 59938 14400.00000 0 1731156.208 -23263156.678 -10308147.520 10 0 59938 15300.00000 0 1868065.897 -21821147.439 -13064894.083 10 0 59938 16200.00000 0 2185980.422 -20078174.390 -15567666.370 10 0 59938 17100.00000 0 2716201.954 -18086464.694 -17767774.082 10 0 59938 18000.00000 0 3479473.108 -15905453.989 -19622406.103 10 0 59938 18900.00000 0 4484869.297 -13599423.222 -21095467.100 10 0 59938 19800.00000 0 5729191.308 -11234948.403 -22158282.961 10 0 59938 20700.00000 0 7196884.971 -8878269.848 -22790161.215 10 0 59938 21600.00000 0 8860492.604 -6592690.635 -22978795.597 10 0 59938 22500.00000 0 10681618.491 -4436112.630 -22720506.877 10 0 59938 23400.00000 0 12612368.861 -2458812.661 -22020315.279 10 0 59938 24300.00000 0 14597206.937 -701551.088 -20891843.070 10 0 59938 25200.00000 0 16575145.998 805908.940 -19357049.113 10 0 59938 26100.00000 0 18482189.006 2045810.538 -17445800.464 10 0 59938 27000.00000 0 20253912.886 3012899.339 -15195289.273 10 0 59938 27900.00000 0 21828089.264 3714387.481 -12649306.236 10 0 59938 28800.00000 0 23147231.677 4169388.213 -9857384.862 10 0 59938 29700.00000 0 24160962.329 4407846.458 -6873833.385 10 0 59938 30600.00000 0 24828098.909 4469011.959 -3756673.429 10 0 59938 31500.00000 0 25118373.737 4399520.895 -566506.693 10 0 59938 32400.00000 0 25013713.071 4251168.484 2634667.837 10 0 59938 33300.00000 0 24509022.983 4078467.999 5784662.508 10 0 59938 34200.00000 0 23612449.069 3936100.505 8822311.352 10 0 59938 35100.00000 0 22345099.536 3876364.065 11688658.243 10 0 59938 36000.00000 0 20740243.683 3946730.875 14328099.599 10 0 59938 36900.00000 0 18842019.875 4187615.949 16689459.404 10 0 59938 37800.00000 0 16703707.399 4630451.752 18726976.047 10 0 59938 38700.00000 0 14385634.579 5296150.096 20401182.453 10 0 59938 39600.00000 0 11952810.416 6194016.106 21679663.175 10 0 59938 40500.00000 0 9472378.078 7321160.108 22537674.724 10 0 59938 41400.00000 0 7010995.522 8662432.425 22958618.060 10 0 59938 42300.00000 0 4632251.321 10190884.334 22934354.899 10 0 59938 43200.00000 0 2394221.859 11868736.652 22465362.362 10 0 59938 44100.00000 0 347270.085 13648816.447 21560723.301 10 0 59938 45000.00000 0 -1467824.027 15476402.947 20237952.538 10 0 59938 45900.00000 0 -3021324.919 17291406.787 18522662.058 10 0 59938 46800.00000 0 -4295535.241 19030792.779 16448071.062 10 0 59938 47700.00000 0 -5285281.547 20631146.034 14054369.585 10 0 59938 48600.00000 0 -5997872.590 22031274.988 11387947.122 10 0 59938 49500.00000 0 -6452532.666 23174743.011 8500500.257 10 0 59938 50400.00000 0 -6679334.307 24012222.719 5448035.914 10 0 59938 51300.00000 0 -6717675.670 24503574.201 2289788.904 10 0 59938 52200.00000 0 -6614367.139 24619559.466 -912925.568 10 0 59938 53100.00000 0 -6421408.217 24343120.415 -4097902.162 10 0 59938 54000.00000 0 -6193549.073 23670165.745 -7203255.198 10 0 59938 54900.00000 0 -5985740.405 22609832.728 -10168624.105 10 0 59938 55800.00000 0 -5850580.105 21184211.843 -12936350.573 10 0 59938 56700.00000 0 -5835865.574 19427544.928 -15452603.995 10 0 59938 57600.00000 0 -5982356.095 17384929.607 -17668432.853 10 0 59938 58500.00000 0 -6321840.852 15110583.664 -19540721.108 10 0 59938 59400.00000 0 -6875595.250 12665741.512 -21033030.717 10 0 59938 60300.00000 0 -7653291.810 10116270.266 -22116313.731 10 0 59938 61200.00000 0 -8652412.593 7530104.772 -22769479.990 10 0 59938 62100.00000 0 -9858188.994 4974608.345 -22979809.408 10 0 59938 63000.00000 0 -11244072.460 2513968.954 -22743200.836 10 0 59938 63900.00000 0 -12772717.213 206739.122 -22064252.681 10 0 59938 64800.00000 0 -14397434.499 -1896378.430 -20956173.699 10 0 59938 65700.00000 0 -16064057.933 -3754407.726 -19440525.607 10 0 59938 66600.00000 0 -17713142.066 -5337561.475 -17546802.466 10 0 59938 67500.00000 0 -19282402.102 -6628228.013 -15311854.899 10 0 59938 68400.00000 0 -20709292.453 -7621443.178 -12779170.282 10 0 59938 69300.00000 0 -21933615.663 -8324828.682 -9998023.020 10 0 59938 70200.00000 0 -22900051.879 -8758001.126 -7022511.579 10 0 59938 71100.00000 0 -23560502.296 -8951478.135 -3910501.316 10 0 59938 72000.00000 0 -23876147.685 -8945129.266 -722494.226 10 0 59938 72900.00000 0 -23819135.258 -8786238.642 2479551.902 10 0 59938 73800.00000 0 -23373822.780 -8527262.559 5633431.368 10 0 59938 74700.00000 0 -22537527.628 -8223378.048 8677901.337 10 0 59938 75600.00000 0 -21320749.421 -7929927.050 11553871.624 10 0 59938 76500.00000 0 -19746857.072 -7699864.944 14205550.127 10 0 59938 77400.00000 0 -17851253.579 -7581321.686 16581521.654 10 0 59938 78300.00000 0 -15680053.670 -7615378.706 18635739.546 10 0 59938 79200.00000 0 -13288329.580 -7834155.348 20328411.448 10 0 59938 80100.00000 0 -10737997.996 -8259285.347 21626762.789 10 0 59938 81000.00000 0 -8095435.809 -8900847.339 22505664.130 10 0 59938 81900.00000 0 -5428923.114 -9756794.329 22948111.145 10 0 59938 82800.00000 0 -2806018.866 -10812906.193 22945548.739 10 0 59938 83700.00000 0 -290976.974 -12043267.613 22498033.712 10 0 59938 84600.00000 0 2057691.254 -13411252.036 21614233.133 10 0 59938 85500.00000 0 4189408.416 -14870971.323 20311258.522 10 0 59939 0.00000 0 6063386.335 -16369131.273 18614338.917 10 0 59939 900.00000 0 7650070.496 -17847217.262 16556337.591 10 0 59939 1800.00000 0 8932112.107 -19243917.469 14177123.406 10 0 59939 2700.00000 0 9904831.615 -20497685.757 11522805.025 10 0 59939 3600.00000 0 10576152.525 -21549335.374 8644844.118 10 0 59939 4500.00000 0 10966009.976 -22344555.765 5599063.180 10 0 59939 5400.00000 0 11105259.232 -22836246.606 2444566.726 10 0 59939 6300.00000 0 11034130.441 -22986570.630 -757403.593 10 0 59939 7200.00000 0 10800295.140 -22768638.158 -3944657.743 10 0 59939 8100.00000 0 10456626.500 -22167751.562 -7055266.696 10 0 59939 9000.00000 0 10058748.410 -21182156.147 -10028768.670 10 0 59939 9900.00000 0 9662477.506 -19823264.687 -12807348.176 10 0 59939 10800.00000 0 9321266.988 -18115344.946 -15336964.481 10 0 59939 11700.00000 0 9083760.989 -16094682.165 -17568407.047 10 0 59939 12600.00000 0 8991563.659 -13808250.642 -19458256.931 10 0 59939 13500.00000 0 9077318.025 -11311949.174 -20969735.169 10 0 59939 14400.00000 0 9363176.548 -8668473.421 -22073421.494 10 0 59939 15300.00000 0 9859728.716 -5944913.548 -22747829.247 10 0 59939 16200.00000 0 10565431.632 -3210176.883 -22979825.369 10 0 59939 17100.00000 0 11466568.345 -532342.551 -22764887.308 10 0 59939 18000.00000 0 12537736.322 2023942.028 -22107191.840 10 0 59939 18900.00000 0 13742846.064 4399914.872 -21019534.085 10 0 59939 19800.00000 0 15036588.376 6544901.752 -19523078.206 10 0 59939 20700.00000 0 16366308.829 8418175.914 -17646944.556 10 0 59939 21600.00000 0 17674210.796 9990398.535 -15427641.219 10 0 59939 22500.00000 0 18899794.359 11244580.786 -12908350.915 10 0 59939 23400.00000 0 19982428.291 12176528.429 -10138087.254 10 0 59939 24300.00000 0 20863946.560 12794751.773 -7170736.896 10 0 59939 25200.00000 0 21491159.667 13119846.304 -4064006.561 10 0 59939 26100.00000 0 21818174.586 13183371.624 -878295.881 10 0 59939 27000.00000 0 21808425.260 13026277.569 2324481.423 10 0 59939 27900.00000 0 21436327.744 12696945.417 5482104.589 10 0 59939 28800.00000 0 20688490.136 12248928.196 8533256.936 10 0 59939 29700.00000 0 19564426.227 11738486.709 11418717.172 10 0 59939 30600.00000 0 18076742.797 11222026.164 14082507.506 10 0 59939 31500.00000 0 16250792.709 10753542.184 16472976.205 10 0 59939 32400.00000 0 14123808.208 10382184.215 18543793.967 10 0 59939 33300.00000 0 11743550.536 10150039.028 20254845.290 10 0 59939 34200.00000 0 9166531.941 10090227.446 21572998.321 10 0 59939 35100.00000 0 6455883.672 10225394.038 22472739.168 10 0 59939 36000.00000 0 3678957.865 10566652.928 22936659.323 10 0 59939 36900.00000 0 904762.100 11113033.732 22955787.571 10 0 59939 37800.00000 0 -1798668.070 11851450.836 22529760.612 10 0 59939 38700.00000 0 -4366850.959 12757197.473 21666829.463 10 0 59939 39600.00000 0 -6741289.125 13794944.341 20383701.581 10 0 59939 40500.00000 0 -8871648.840 14920201.550 18705221.482 10 0 59939 41400.00000 0 -10717599.438 16081183.457 16663895.474 10 0 59939 42300.00000 0 -12250237.119 17220999.016 14299268.974 10 0 59939 43200.00000 0 -13453034.950 18280076.564 11657167.564 10 0 59939 44100.00000 0 -14322280.196 19198721.857 8788815.577 10 0 59939 45000.00000 0 -14866981.308 19919702.223 5749848.569 10 0 59939 45900.00000 0 -15108248.968 20390748.187 2599238.209 10 0 59939 46800.00000 0 -15078177.612 20566867.010 -601849.973 10 0 59939 47700.00000 0 -14818274.809 20412370.033 -3791243.779 10 0 59939 48600.00000 0 -14377505.050 19902527.537 -6906973.345 10 0 59939 49500.00000 0 -13810030.882 19024780.204 -9888478.109 10 0 59939 50400.00000 0 -13172747.199 17779454.882 -12677787.746 10 0 59939 51300.00000 0 -12522713.370 16179953.142 -15220653.596 10 0 59939 52200.00000 0 -11914592.265 14252403.285 -17467608.128 10 0 59939 53100.00000 0 -11398204.932 12034789.172 -19374931.317 10 0 59939 54000.00000 0 -11016304.810 9575591.167 -20905504.889 10 0 59939 54900.00000 0 -10802665.968 6931995.024 -22029537.622 10 0 59939 55800.00000 0 -10780566.565 4167742.771 -22725147.485 10 0 59939 56700.00000 0 -10961731.928 1350714.520 -22978789.307 10 0 59939 57600.00000 0 -11345782.231 -1449658.622 -22785519.693 10 0 59939 58500.00000 0 -11920208.351 -4165043.200 -22149094.014 10 0 59939 59400.00000 0 -12660877.224 -6730803.907 -21081893.626 10 0 59939 60300.00000 0 -13533045.608 -9088448.137 -19604684.619 10 0 59939 61200.00000 0 -14492839.651 -11187813.314 -17746212.739 10 0 59939 62100.00000 0 -15489137.922 -12988906.510 -15542642.261 10 0 59939 63000.00000 0 -16465778.460 -14463320.466 -13036849.647 10 0 59939 63900.00000 0 -17363996.519 -15595167.750 -10277585.828 10 0 59939 64800.00000 0 -18124989.861 -16381495.219 -7318523.538 10 0 59939 65700.00000 0 -18692502.942 -16832162.752 -4217208.529 10 0 59939 66600.00000 0 -19015320.443 -16969192.797 -1033935.575 10 0 59939 67500.00000 0 -19049564.441 -16825619.675 2169428.334 10 0 59939 68400.00000 0 -18760697.851 -16443888.626 5330650.180 10 0 59939 69300.00000 0 -18125149.252 -15873873.516 8388342.355 10 0 59939 70200.00000 0 -17131490.349 -15170598.051 11283155.445 10 0 59939 71100.00000 0 -15781116.224 -14391757.619 13958928.933 10 0 59939 72000.00000 0 -14088399.608 -13595146.931 16363777.413 10 0 59939 72900.00000 0 -12080312.446 -12836102.240 18451091.581 10 0 59939 73800.00000 0 -9795530.239 -12165065.881 20180435.119 10 0 59939 74700.00000 0 -7283056.235 -11625375.339 21518320.801 10 0 59939 75600.00000 0 -4600422.150 -11251369.351 22438851.723 10 0 59939 76500.00000 0 -1811539.538 -11066889.993 22924216.139 10 0 59939 77400.00000 0 1015709.866 -11084243.059 22965027.138 10 0 59939 78300.00000 0 3812045.969 -11303659.877 22560501.271 10 0 59939 79200.00000 0 6509418.963 -11713282.854 21718473.014 10 0 59939 80100.00000 0 9043587.047 -12289675.310 20455244.877 10 0 59939 81000.00000 0 11356537.673 -12998834.466 18795275.794 10 0 59939 81900.00000 0 13398653.105 -13797665.504 16770713.263 10 0 59939 82800.00000 0 15130531.313 -14635855.411 14420777.557 10 0 59939 83700.00000 0 16524387.422 -15458068.501 11791009.064 10 0 59939 84600.00000 0 17564978.015 -16206371.884 8932392.401 10 0 59939 85500.00000 0 18250010.214 -16822789.168 5900373.579 10 0 59940 0.00000 0 18590018.843 -17251874.957 2753788.911 10 0 59940 900.00000 0 18607717.268 -17443201.633 -446275.662 10 0 59940 1800.00000 0 18336849.039 -17353652.512 -3637668.435 10 0 59940 2700.00000 0 17820589.557 -16949424.561 -6758381.575 10 0 59940 3600.00000 0 17109564.807 -16207654.477 -9747758.485 10 0 59940 4500.00000 0 16259571.331 -15117598.494 -12547676.541 10 0 59940 5400.00000 0 15329093.928 -13681314.702 -15103681.474 10 0 59940 6300.00000 0 14376726.300 -11913817.605 -17366050.814 10 0 59940 7200.00000 0 13458603.909 -9842696.956 -19290765.233 10 0 59940 8100.00000 0 12625957.784 -7507215.405 -20840368.616 10 0 59940 9000.00000 0 11922892.804 -4956921.456 -21984699.938 10 0 59940 9900.00000 0 11384484.433 -2249834.636 -22701482.592 10 0 59940 10800.00000 0 11035274.314 549722.293 -22976759.744 10 0 59940 11700.00000 0 10888228.208 3373554.534 -22805167.241 10 0 59940 12600.00000 0 10944200.221 6152189.124 -22190038.817 10 0 59940 13500.00000 0 11191925.813 8817524.071 -21143341.504 10 0 59940 14400.00000 0 11608543.770 11305422.956 -19685442.474 10 0 59940 15300.00000 0 12160624.944 13558147.366 -17844711.743 10 0 59940 16200.00000 0 12805664.111 15526526.347 -15656968.385 10 0 59940 17100.00000 0 13493971.681 17171773.023 -13164780.933 10 0 59940 18000.00000 0 14170884.988 18466873.179 -10416635.682 10 0 59940 18900.00000 0 14779205.295 19397488.708 -7465989.208 10 0 59940 19800.00000 0 15261756.991 19962339.179 -4370223.795 10 0 59940 20700.00000 0 15563960.272 20173046.713 -1189526.646 10 0 59940 21600.00000 0 15636307.967 20053452.134 2014284.847 10 0 59940 22500.00000 0 15436641.328 19638432.557 5178968.335 10 0 59940 23400.00000 0 14932128.152 18972271.583 8243068.192 10 0 59940 24300.00000 0 14100859.355 18106652.046 11147109.686 10 0 59940 25200.00000 0 12932996.281 17098356.911 13834752.210 10 0 59940 26100.00000 0 11431420.176 16006775.940 16253879.102 10 0 59940 27000.00000 0 9611856.135 14891323.552 18357603.218 10 0 59940 27900.00000 0 7502465.884 13808876.545 20105169.286 10 0 59940 28800.00000 0 5142925.947 12811339.185 21462736.269 10 0 59940 29700.00000 0 2583028.979 11943437.343 22404025.445 10 0 59940 30600.00000 0 -119134.374 11240833.536 22910822.635 10 0 59940 31500.00000 0 -2899338.401 10728641.063 22973325.610 10 0 59940 32400.00000 0 -5689641.441 10420398.726 22590330.676 10 0 59940 33300.00000 0 -8420962.106 10317548.366 21769255.179 10 0 59940 34200.00000 0 -11025707.041 10409436.650 20525995.599 10 0 59940 35100.00000 0 -13440342.545 10673840.744 18884623.720 10 0 59940 36000.00000 0 -15607804.602 11077995.840 16876926.230 10 0 59940 36900.00000 0 -17479648.181 11580081.578 14541795.911 10 0 59940 37800.00000 0 -19017847.306 12131105.250 11924485.357 10 0 59940 38700.00000 0 -20196171.590 12677102.916 9075736.731 10 0 59940 39600.00000 0 -21001082.146 13161566.055 6050803.706 10 0 59940 40500.00000 0 -21432109.751 13527991.575 2908383.907 10 0 59940 41400.00000 0 -21501699.579 13722447.485 -290517.848 10 0 59940 42300.00000 0 -21234529.073 13696045.513 -3483773.475 10 0 59940 43200.00000 0 -20666327.749 13407215.511 -6609339.624 10 0 59940 44100.00000 0 -19842248.687 12823684.599 -9606465.982 10 0 59940 45000.00000 0 -18814860.470 11924076.226 -12416879.815 10 0 59940 45900.00000 0 -17641844.427 10699060.254 -14985923.256 10 0 59940 46800.00000 0 -16383494.497 9152004.009 -17263620.693 10 0 59940 47700.00000 0 -15100125.418 7299095.317 -19205655.047 10 0 59940 48600.00000 0 -13849498.698 5168930.778 -20774233.616 10 0 59940 49500.00000 0 -12684375.015 2801585.000 -21938826.519 10 0 59940 50400.00000 0 -11650296.256 247198.483 -22676763.204 10 0 59940 51300.00000 0 -10783690.539 -2435858.031 -22973675.465 10 0 59940 52200.00000 0 -10110379.856 -5183167.171 -22823778.370 10 0 59940 53100.00000 0 -9644552.927 -7926706.142 -22229983.649 10 0 59940 54000.00000 0 -9388246.135 -10597444.555 -21203843.336 10 0 59940 54900.00000 0 -9331353.940 -13127991.160 -19765324.689 10 0 59940 55800.00000 0 -9452167.863 -15455179.605 -17942420.710 10 0 59940 56700.00000 0 -9718420.694 -17522485.863 -15770603.719 10 0 59940 57600.00000 0 -10088791.268 -19282176.945 -13292132.560 10 0 59940 58500.00000 0 -10514805.599 -20697101.582 -10555226.958 10 0 59940 59400.00000 0 -10943053.335 -21742048.679 -7613125.266 10 0 59940 60300.00000 0 -11317625.095 -22404617.470 -4523044.154 10 0 59940 61200.00000 0 -11582666.874 -22685563.767 -1345061.020 10 0 59940 62100.00000 0 -11684942.731 -22598608.953 1859058.637 10 0 59940 63000.00000 0 -11576296.678 -22169720.944 5027065.525 10 0 59940 63900.00000 0 -11215909.109 -21435898.596 8097438.453 10 0 59940 64800.00000 0 -10572251.874 -20443511.942 11010579.882 10 0 59940 65700.00000 0 -9624659.037 -19246269.146 13709971.641 10 0 59940 66600.00000 0 -8364446.732 -17902896.533 16143268.268 10 0 59940 67500.00000 0 -6795534.571 -16474629.753 18263307.105 10 0 59940 68400.00000 0 -4934542.048 -15022621.658 20029016.021 10 0 59940 69300.00000 0 -2810355.361 -13605375.508 21406201.932 10 0 59940 70200.00000 0 -463182.039 -12276310.615 22368205.697 10 0 59940 71100.00000 0 2056868.089 -11081561.634 22896411.670 10 0 59940 72000.00000 0 4691617.482 -10058102.667 22980602.831 10 0 59940 72900.00000 0 7376995.954 -9232273.655 22619155.331 10 0 59940 73800.00000 0 10045467.245 -8618769.655 21819069.065 10 0 59940 74700.00000 0 12628607.604 -8220134.479 20595833.769 10 0 59940 75600.00000 0 15059730.732 -8026779.160 18973133.017 10 0 59940 76500.00000 0 17276451.335 -8017524.027 16982391.291 10 0 59940 77400.00000 0 19223081.711 -8160641.457 14662172.171 10 0 59940 78300.00000 0 20852762.560 -8415355.455 12057438.437 10 0 59940 79200.00000 0 22129239.803 -8733735.092 9218687.472 10 0 59940 80100.00000 0 23028213.579 -9062902.193 6200978.004 10 0 59940 81000.00000 0 23538203.202 -9347460.249 3062866.408 10 0 59940 81900.00000 0 23660891.843 -9532041.884 -134727.224 10 0 59940 82800.00000 0 23410936.382 -9563866.988 -3329701.268 10 0 59940 83700.00000 0 22815250.261 -9395202.768 -6459979.958 10 0 59940 84600.00000 0 21911789.420 -8985620.846 -9464722.244 10 0 59940 85500.00000 0 20747892.311 -8303954.933 -12285508.045 10 0 59941 0.00000 0 19378244.024 -7329875.100 -14867478.150 10 0 59941 900.00000 0 17862549.545 -6055010.154 -17160406.435 10 0 59941 1800.00000 0 16263016.099 -4483570.599 -19119679.635 10 0 59941 2700.00000 0 14641748.199 -2632442.581 -20707169.940 10 0 59941 3600.00000 0 13058166.846 -530748.522 -21891979.731 10 0 59941 4500.00000 0 11566560.712 1781109.092 -22651045.270 10 0 59941 5400.00000 0 10213872.219 4252881.996 -22969587.386 10 0 59941 6300.00000 0 9037811.271 6826329.774 -22841400.401 10 0 59941 7200.00000 0 8065375.503 9437416.313 -22268973.722 10 0 59941 8100.00000 0 7311838.697 12018758.281 -21263443.700 10 0 59941 9000.00000 0 6780249.182 14502224.113 -19844376.667 10 0 59941 9900.00000 0 6461458.564 16821575.511 -18039387.265 10 0 59941 10800.00000 0 6334678.716 18915041.640 -15883599.411 10 0 59941 11700.00000 0 6368542.594 20727718.859 -13418960.298 10 0 59941 12600.00000 0 6522623.188 22213695.955 -10693420.844 10 0 59941 13500.00000 0 6749345.467 23337816.389 -7759998.664 10 0 59941 14400.00000 0 6996209.507 24077004.248 -4675742.067 10 0 59941 15300.00000 0 7208229.833 24421098.894 -1500615.724 10 0 59941 16200.00000 0 7330486.856 24373164.136 1703669.795 10 0 59941 17100.00000 0 7310681.580 23949259.859 4874861.304 10 0 59941 18000.00000 0 7101584.785 23177686.720 7951375.034 10 0 59941 18900.00000 0 6663276.502 22097736.757 10873493.477 10 0 59941 19800.00000 0 5965080.631 20758003.352 13584523.520 10 0 59941 20700.00000 0 4987112.675 19214322.414 16031893.273 10 0 59941 21600.00000 0 3721374.944 17527431.778 18168166.619 10 0 59941 22500.00000 0 2172352.759 15760447.229 19951956.323 10 0 59941 23400.00000 0 357086.132 13976260.873 21348718.661 10 0 59941 24300.00000 0 -1695286.743 12234970.296 22331415.115 10 0 59941 25200.00000 0 -3944495.943 10591445.261 22881029.220 10 0 59941 26100.00000 0 -6340576.870 9093132.646 22986929.387 10 0 59941 27000.00000 0 -8825719.211 7778190.164 22647071.365 10 0 59941 27900.00000 0 -11336452.246 6674025.538 21868036.862 10 0 59941 28800.00000 0 -13806076.909 5796301.055 20664907.634 10 0 59941 29700.00000 0 -16167244.922 5148444.049 19060977.310 10 0 59941 30600.00000 0 -18354579.049 4721682.934 17087305.981 10 0 59941 31500.00000 0 -20307226.490 4495606.740 14782125.445 10 0 59941 32400.00000 0 -21971239.948 4439224.235 12190105.785 10 0 59941 33300.00000 0 -23301687.728 4512477.941 9361496.530 10 0 59941 34200.00000 0 -24264404.953 4668149.234 6351158.301 10 0 59941 35100.00000 0 -24837312.788 4854074.116 3217503.074 10 0 59941 36000.00000 0 -25011250.232 5015576.015 21363.155 10 0 59941 36900.00000 0 -24790283.276 5098012.518 -3175189.207 10 0 59941 37800.00000 0 -24191478.099 5049327.857 -6310048.576 10 0 59941 38700.00000 0 -23244147.446 4822502.447 -9322285.723 10 0 59941 39600.00000 0 -21988601.552 4377794.923 -12153335.569 10 0 59941 40500.00000 0 -20474455.936 3684680.677 -14748140.113 10 0 59941 41400.00000 0 -18758567.045 2723403.647 -17056223.621 10 0 59941 42300.00000 0 -16902682.521 1486074.395 -19032678.623 10 0 59941 43200.00000 0 -14970904.775 -22733.361 -20639043.294 10 0 59941 44100.00000 0 -13027074.354 -1785914.455 -21844052.939 10 0 59941 45000.00000 0 -11132182.868 -3774296.567 -22624250.833 10 0 59941 45900.00000 0 -9341923.814 -5947619.073 -22964446.573 10 0 59941 46800.00000 0 -7704483.654 -8255986.751 -22858013.042 10 0 59941 47700.00000 0 -6258665.349 -10641738.580 -22307016.221 10 0 59941 48600.00000 0 -5032422.388 -13041654.432 -21322175.339 10 0 59941 49500.00000 0 -4041863.986 -15389408.193 -19922654.057 10 0 59941 50400.00000 0 -3290772.348 -17618165.299 -18135686.678 10 0 59941 51300.00000 0 -2770651.178 -19663216.506 -15996046.562 10 0 59941 52200.00000 0 -2461302.237 -21464538.087 -13545366.978 10 0 59941 53100.00000 0 -2331904.488 -22969171.422 -10831327.708 10 0 59941 54000.00000 0 -2342549.021 -24133322.575 -7906723.302 10 0 59941 54900.00000 0 -2446163.707 -24924094.087 -4828431.413 10 0 59941 55800.00000 0 -2590745.060 -25320776.628 -1656301.748 10 0 59941 56700.00000 0 -2721801.735 -25315646.791 1548012.229 10 0 59941 57600.00000 0 -2784905.262 -24914238.125 4722255.555 10 0 59941 58500.00000 0 -2728239.196 -24135074.752 7804783.963 10 0 59941 59400.00000 0 -2505038.110 -23008879.595 10735762.007 10 0 59941 60300.00000 0 -2075812.726 -21577291.262 13458323.602 10 0 59941 61200.00000 0 -1410266.800 -19891144.185 15919672.306 10 0 59941 62100.00000 0 -488824.520 -18008384.712 18072100.289 10 0 59941 63000.00000 0 696296.231 -15991710.667 19873906.737 10 0 59941 63900.00000 0 2140510.228 -13906033.217 21290198.568 10 0 59941 64800.00000 0 3826815.448 -11815866.688 22293558.847 10 0 59941 65700.00000 0 5726270.584 -9782754.626 22864570.919 10 0 59941 66600.00000 0 7798980.364 -7862838.518 22992188.888 10 0 59941 67500.00000 0 9995548.668 -6104669.325 22673948.025 10 0 59941 68400.00000 0 12258940.088 -4547351.716 21916011.426 10 0 59941 69300.00000 0 14526673.675 -3219097.101 20733052.135 10 0 59941 70200.00000 0 16733258.899 -2136244.536 19147972.817 10 0 59941 71100.00000 0 18812773.687 -1302789.257 17191467.869 10 0 59941 72000.00000 0 20701478.203 -710437.724 14901435.741 10 0 59941 72900.00000 0 22340356.289 -339186.123 12322251.994 10 0 59941 73800.00000 0 23677479.118 -158397.560 9503916.194 10 0 59941 74700.00000 0 24670092.488 -128332.365 6501088.499 10 0 59941 75600.00000 0 25286340.463 -202066.765 3372033.870 10 0 59941 76500.00000 0 25506552.837 -327718.778 177494.019 10 0 59941 77400.00000 0 25324041.943 -450887.000 -3020491.115 10 0 59941 78300.00000 0 24745374.776 -517198.743 -6159789.407 10 0 59941 79200.00000 0 23790108.383 -474859.111 -9179386.348 10 0 59941 80100.00000 0 22489999.002 -277092.358 -12020574.599 10 0 59941 81000.00000 0 20887717.720 115628.755 -14628099.631 10 0 59941 81900.00000 0 19035126.155 733661.047 -16951238.738 10 0 59941 82800.00000 0 16991184.281 1596658.912 -18944791.855 10 0 59941 83700.00000 0 14819577.998 2712498.281 -20569964.666 10 0 59941 84600.00000 0 12586165.696 4076703.352 -21795126.597 10 0 59941 85500.00000 0 10356350.708 5672401.576 -22596428.811 99